Location: San Gennaro Vesuviano
(40.8833°N, 14.5333°E)
Time: 22:59:15
(UTC+00:00)

ATLAS 5 CENTAUR R/B - Pass Details

Date: 22 April 2021
Orbit: 256 x 14169 km, 60.8° (Epoch: 10 May)

Event Time Altitude Azimuth Distance (km) Brightness Sun altitude
Rises 19:55:53 0° 294° (WNW) 1,893 5.9 -21.7°
Reaches altitude 10° 19:57:50 10° 262° (W) 1,285 4.2 -22.0°
Enters shadow 19:59:01 14° 232° (SW) 1,256 3.8 -22.2°
